Accueil
METAR-TAF:

METAR-TAF

Aéroports :

Meppen, Allemagne

Base aérienne

latitude: 52-43-24N, longitude: 007-19-35E, altitude: 21 m

Observation

Le bulletin a été fait il y a 45 minutes, à 04:20 UTC
Vent 1 kt de nord/nord-est
Température -4°C
Humidité 93%
Pression 1027 hPa
Visibilité: 1400 m

METAR: ETWM 180420Z AUTO 02001KT 1400 // ////// M04/M05 Q1027 ///

Heure: 06:05 (05:05 UTC)


TAF: absent

Observations et prévisions météorologiques de plus de 4000 aéroports (messages METAR et TAF).

Les stations disponibles sont représentées par des disques jaunes et rouges sur la carte.

Passer la souris dessus pour voir le nom de la station.

Cliquer dessus pour voir les observations et prévisions météorologiques.

Pour changer de carte: cliquez sur les boutons verts avec une croix noire pour zoomer, sur le bouton vert avec un tiret pour effectuer un zoom arrière, ou sur les flèches vertes pour les cartes adjacentes.


METAR-TAF: